Weather in Chesnokovka

Russia / Orenburg Oblast     51°39′25″N   54°05′11″E
temp.,
°C
wind,
m/s
gust,
m/s
humid.,
%
clouds,
%
prec.,
mm/h
press.,
hPa
HPBL,
m
21 january, fri
fri2123:00−17ene229988 0.1 102412
02:00−16ene229989 0.1 102316
05:00−16ene229896 0.1 102417
08:00−12ene259777 0.2 102284
11:00−10e259691 0.3 1023157
14:00−7se3593100 0.1 1023306
17:00−8se249796 0.3 102469
20:00−11se249799 0.2 102462
22 january, sat
sat2223:00−13se2397100 0.4 102553
02:00−14se2497100 0.1 102678
05:00−13ese2596100 0.3 1026100
08:00−14ese2494100 0.1 102773
11:00−14ese3692100 0.1 1028133
14:00−11se268832 0.0 1028195
17:00−12ese3392100 0.0 102846
20:00−17e2296100 0.0 103022
23 january, sun
sun2323:00−17e2294100 0.0 103123
02:00−16e2389100 0.0 103149
05:00−17e2288100 0.0 103233
08:00−16e3489100 0.0 103348
11:00−13ese3785100 0.0 1034149
14:00−11e378379 0.0 1034197
17:00−11e4884100 0.0 1034191
20:00−13e4990100 0.0 1036144
24 january, mon
mon2423:00−14e51191100 0.0 1036179
02:00−15e3109397 0.0 1037149
05:00−16e399293 0.0 1038139
08:00−17e41090100 0.0 1038142
11:00−15e41087100 0.0 1039182
14:00−12e3884100 0.0 1038200
17:00−12e4984100 0.0 1038163
20:00−14e31085100 0.0 1038143
25 january, tue
tue2523:00−18ene2289100 0.0 103817
02:00−19ene2390100 0.0 103937
05:00−20ene2291100 0.0 103919
08:00−21ene229295 0.0 103817
11:00−18e2388100 0.0 103759
14:00−12e2382100 0.0 103699
17:00−14ene118952 0.0 10359
20:00−19ene22945 0.0 10359